Weather History for PAMH - January, 2013

Change the Weather History Date:

Monday, January 7, 2013

  Actual Average Record
Temperature  
Mean Temperature 5 °F -  
Max Temperature 12 °F 0 °F 12 °F (2001)
Min Temperature -2 °F -12 °F -52 °F (1997)
Degree Days  
Heating Degree Days 60    
Moisture  
Dew Point 3 °F    
Average Humidity 86    
Maximum Humidity 100    
Minimum Humidity 60    
Precipitation  
Precipitation 0.00 in - - ()
Sea Level Pressure  
Sea Level Pressure 29.27 in    
Wind  
Wind Speed 0 mph (NE)    
Max Wind Speed 5 mph    
Max Gust Speed -    
Visibility 10 miles    
Events      
Averages and records for this station are not official NWS values.
T = Trace of Precipitation, MM = Missing Value Source: NWS Daily Summary

Daily Weather History Graph

Daily Weather History Graph

Search for Another Location

Airport or City:

Trip Planner

Search our weather history database for the weather conditions in past years. The results will help you decide how hot, cold, wet, or windy it might be!

Date:

Astronomy

Jan. 07, 2013 Rise Set
Actual Time 10:48 AM AKST 3:43 PM AKST
Civil Twilight 9:37 AM AKST 4:54 PM AKST
Nautical Twilight 8:31 AM AKST 6:00 PM AKST
Astronomical Twilight 7:33 AM AKST 6:58 PM AKST
Moon 5:56 AM AKST (1/7) 12:26 PM AKST (1/7)
Length of Visible Light 7h 17m
Length of Day
4h 55m
Waning Crescent, 21% of the Moon is Illuminated
Jan 7
Waning Crescent
Jan 11
New
Jan 18
First Quarter
Jan 26
Full
Feb 3
Last Quarter

Hourly Weather History & Observations

Time (AKST) Temp. Windchill Dew Point Humidity Pressure Visibility Wind Dir Wind Speed Gust Speed Precip Events Conditions
12:16 AM 3.2 °F - 1.4 °F 92% 29.14 in 10.0 mi Calm Calm - N/A   Clear
12:36 AM 6.8 °F - 5.0 °F 92% 29.13 in 10.0 mi Calm Calm - N/A   Clear
12:56 AM 5.0 °F - 3.2 °F 92% 29.12 in 10.0 mi Calm Calm - N/A   Clear
1:16 AM -0.4 °F - -7.6 °F 72% 29.13 in 10.0 mi Calm Calm - N/A   Clear
1:36 AM 6.8 °F - 3.2 °F 85% 29.13 in 10.0 mi Calm Calm - N/A   Clear
1:56 AM 8.6 °F - 3.2 °F 79% 29.12 in 10.0 mi Calm Calm - N/A   Clear
2:16 AM 1.4 °F - -4.0 °F 78% 29.12 in 10.0 mi Calm Calm - N/A   Clear
2:36 AM 5.0 °F - 3.2 °F 92% 29.12 in 10.0 mi Calm Calm - N/A   Clear
2:56 AM 10.4 °F - 10.4 °F 100% 29.12 in 10.0 mi Calm Calm - N/A   Partly Cloudy
3:16 AM 6.8 °F - 1.4 °F 79% 29.13 in 10.0 mi Calm Calm - N/A   Scattered Clouds
3:36 AM 5.0 °F - 3.2 °F 92% 29.13 in 10.0 mi Calm Calm - N/A   Mostly Cloudy
3:56 AM 10.4 °F - 8.6 °F 92% 29.13 in 10.0 mi Calm Calm - N/A   Overcast
4:16 AM 8.6 °F - 5.0 °F 85% 29.14 in 10.0 mi Calm Calm - N/A   Overcast
4:36 AM 8.6 °F - 6.8 °F 92% 29.14 in 10.0 mi Calm Calm - N/A   Overcast
4:56 AM 8.6 °F - 6.8 °F 92% 29.15 in 10.0 mi Calm Calm - N/A   Overcast
5:16 AM 8.6 °F - 6.8 °F 92% 29.15 in 10.0 mi Calm Calm - N/A   Overcast
5:36 AM 10.4 °F - 6.8 °F 85% 29.15 in 10.0 mi Calm Calm - N/A   Overcast
5:56 AM 10.4 °F - 8.6 °F 92% 29.15 in 10.0 mi Calm Calm - N/A   Overcast
6:16 AM 8.6 °F - 5.0 °F 85% 29.16 in 10.0 mi Calm Calm - N/A   Overcast
6:36 AM 10.4 °F - 8.6 °F 92% 29.16 in 10.0 mi Calm Calm - N/A   Overcast
6:56 AM 10.4 °F - 8.6 °F 92% 29.17 in 10.0 mi Calm Calm - N/A   Overcast
7:16 AM 10.4 °F - 8.6 °F 92% 29.17 in 10.0 mi Calm Calm - N/A   Overcast
7:36 AM 12.2 °F - 8.6 °F 85% 29.18 in 10.0 mi Calm Calm - N/A   Overcast
7:56 AM 10.4 °F - 8.6 °F 92% 29.18 in 10.0 mi Calm Calm - N/A   Overcast
8:16 AM 10.4 °F - 6.8 °F 85% 29.20 in 10.0 mi Calm Calm - N/A   Overcast
8:36 AM 10.4 °F - 6.8 °F 85% 29.20 in 10.0 mi Calm Calm - N/A   Overcast
8:56 AM 10.4 °F - 6.8 °F 85% 29.21 in 10.0 mi Calm Calm - N/A   Scattered Clouds
9:16 AM 10.4 °F - 6.8 °F 85% 29.22 in 10.0 mi Calm Calm - N/A   Clear
9:36 AM 8.6 °F - 6.8 °F 92% 29.23 in 10.0 mi Calm Calm - N/A   Clear
9:56 AM 8.6 °F - 6.8 °F 92% 29.24 in 10.0 mi Calm Calm - N/A   Clear
10:16 AM 8.6 °F 0.1 °F 5.0 °F 85% 29.24 in 10.0 mi NE 4.6 mph - N/A   Clear
10:36 AM 8.6 °F - 3.2 °F 79% 29.24 in 10.0 mi Calm Calm - N/A   Clear
10:56 AM 8.6 °F - 3.2 °F 79% 29.25 in 10.0 mi Calm Calm - N/A   Clear
11:16 AM 6.8 °F - 3.2 °F 85% 29.26 in 10.0 mi Calm Calm - N/A   Clear
11:36 AM 6.8 °F - 3.2 °F 85% 29.26 in 10.0 mi Calm Calm - N/A   Clear
11:56 AM 6.8 °F - 3.2 °F 85% 29.27 in 10.0 mi Calm Calm - N/A   Clear
12:16 PM 8.6 °F - 6.8 °F 92% 29.27 in 10.0 mi Calm Calm - N/A   Clear
12:36 PM 6.8 °F - 1.4 °F 79% 29.28 in 10.0 mi Calm Calm - N/A   Clear
12:56 PM 8.6 °F - 5.0 °F 85% 29.28 in 10.0 mi Calm Calm - N/A   Clear
1:16 PM 6.8 °F - 1.4 °F 79% 29.28 in 10.0 mi Calm Calm - N/A   Clear
1:36 PM 3.2 °F - -2.2 °F 78% 29.29 in 10.0 mi Calm Calm - N/A   Clear
2:16 PM 6.8 °F - 3.2 °F 85% 29.30 in 10.0 mi Calm Calm - N/A   Clear
2:36 PM 8.6 °F - 3.2 °F 79% 29.31 in 10.0 mi Calm Calm - N/A   Clear
2:56 PM 6.8 °F - 3.2 °F 85% 29.31 in 10.0 mi Calm Calm - N/A   Clear
3:16 PM 3.2 °F - 1.4 °F 92% 29.32 in 10.0 mi Calm Calm - N/A   Clear
3:36 PM 6.8 °F - 6.8 °F 100% 29.32 in 10.0 mi Calm Calm - N/A   Clear
3:56 PM 6.8 °F - 1.4 °F 79% 29.34 in 10.0 mi Calm Calm - N/A   Clear
4:16 PM 6.8 °F - 1.4 °F 79% 29.34 in 10.0 mi Calm Calm - N/A   Clear
4:36 PM 6.8 °F - 3.2 °F 85% 29.34 in 10.0 mi Calm Calm - N/A   Clear
4:56 PM 6.8 °F - 3.2 °F 85% 29.34 in 10.0 mi Calm Calm - N/A   Clear
5:16 PM 1.4 °F - -2.2 °F 85% 29.35 in 10.0 mi Calm Calm - N/A   Clear
5:36 PM -2.2 °F - -13.0 °F 60% 29.36 in 10.0 mi Calm Calm - N/A   Clear
5:56 PM 5.0 °F - 5.0 °F 100% 29.36 in 10.0 mi Calm Calm - N/A   Clear
6:36 PM 1.4 °F - -2.2 °F 85% 29.38 in 10.0 mi Calm Calm - N/A   Clear
6:56 PM 1.4 °F - -2.2 °F 85% 29.39 in 10.0 mi Calm Calm - N/A   Partly Cloudy
7:16 PM 1.4 °F - -2.2 °F 85% 29.39 in 10.0 mi Calm Calm - N/A   Mostly Cloudy
7:56 PM 1.4 °F - -2.2 °F 85% 29.41 in 10.0 mi Calm Calm - N/A   Overcast
8:16 PM 1.4 °F - -2.2 °F 85% 29.42 in 10.0 mi Calm Calm - N/A   Overcast
8:36 PM 1.4 °F - -0.4 °F 92% 29.43 in 10.0 mi Calm Calm - N/A   Overcast
8:56 PM 1.4 °F - -4.0 °F 78% 29.44 in 10.0 mi Calm Calm - N/A   Overcast
9:16 PM 1.4 °F - 1.4 °F 100% 29.45 in 10.0 mi Calm Calm - N/A   Overcast
9:36 PM 1.4 °F - -2.2 °F 85% 29.46 in 10.0 mi Calm Calm - N/A   Overcast
9:56 PM 1.4 °F - -2.2 °F 85% 29.47 in 10.0 mi Calm Calm - N/A   Overcast
10:16 PM 1.4 °F - 1.4 °F 100% 29.48 in 10.0 mi Calm Calm - N/A   Overcast
10:36 PM 1.4 °F - -0.4 °F 92% 29.49 in 10.0 mi Calm Calm - N/A   Overcast
10:56 PM 5.0 °F - 1.4 °F 85% 29.49 in 10.0 mi Calm Calm - N/A   Overcast
11:16 PM 3.2 °F - -5.8 °F 66% 29.51 in 10.0 mi Calm Calm - N/A   Overcast
11:36 PM 3.2 °F - 1.4 °F 92% 29.52 in 10.0 mi Calm Calm - N/A   Overcast
11:56 PM 3.2 °F - -0.4 °F 85% 29.53 in 10.0 mi Calm Calm - N/A   Overcast